Showing default

QIANFAN-42, 62243

Orbit data source: Space-Track

QIANFAN-42, 62243 is a Chinese payload satellite in LEO that was launched on Thu, 05 Dec 2024 UTC via a CHANG ZHENG 6A launch vehicle from the Taiyaun Space Center, China (TSC). Payload-class satellites include a variety of spacecraft equipped with specific instruments for various scientific and technological missions. These include communications satellites like Starlink; space stations such as the ISS; scientific satellites like the Hubble; Earth observation satellites from companies like Planet Labs, Umbra, and HawkEye 360; GPS; miniature CubeSats for education and research; and military/defense satellites.

Loading next visibility...
Identifier
62243, 2024-232G
Orbit
LEO
Country
Flag of CNCN / PRC
Related business
Manufacturer
SECM
Mission
Partially operational Commercial Communications
Bus & Motor
QIANFAN, Unknown motor
Mass
267 kg wet, ~267 kg dry
Launch date (UTC)
2024-12-05 (2 years ago)
Launch vehicle
CHANG ZHENG 6A
Launch site
Taiyaun Space Center, China (TSC)
Object type
Payload
Rocket body
Debris
Shape & HBR
Box + 1 Pan, 5.0 m
Radar Cross Section
13.200 m², Large (>1 m²)

Expand to show TLE details & history
Last TLE update: 8 hours ago

TLE from 8 hours ago
0 QIANFAN-42
1 62243U 24232G   26246.86378283  .00000255  00000-0  10342-3 0  9990
2 62243  89.0126   7.2102 0012775 300.7056  59.2877 14.24639426139114
Epoch: 2026-09-03T20:43Z
TLE epoch observation values (Epoch: 2026-09-03T20:43:50.836Z)
Latitude
-0.00007°
Longitude
73.25253°
Altitude
808.083 km
Speed
7.452 km/s
True Right ascension
00h 28m 50s
True Declination
0° 00' 00"
Sunlit
Object was in full shadow at epoch
Visualization orbit readout
Latitude
Unknown
Longitude
Unknown
Altitude
Unknown
Speed
Unknown
Apparent Right ascension
Unknown
Apparent Declination
Unknown
Sunlit
N/A
Visualization observer readout
Local Sidereal Time
21:06:12
Azimuth
Unknown
Elevation
Unknown
Doppler factor
Unknown
Orbital elements
Apogee altitude
815.828 km
Perigee altitude
797.471 km
Semi-major axis
7,184.787 km
Eccentricity
0.00128
Inclination
89.0126°
RAAN
7.2102°
Arg. of periapsis
300.7056°
True anomaly
59.41366°
Mean anomaly
59.2877°
Eccentric anomaly
59.35067°
Mean motion
3.56387 °/min
Orbital period
101.01 mins
BSTAR
0.00010342
Loading maneuver chart data...
Computing Atmospheric mass density...
Loading historical data...
Loading historical data...
Loading historical data...
Loading historical data...
Loading historical data...
Loading historical data...
Loading historical data...

Documentation

Showing up to 5 results
|